Hugo, OK

1:09 AM CST on December 12, 2017 (GMT -0600)
Stamper Municipal

Weather History for KHHW - July, 2013

Change the Weather History Date:

Monday, July 29, 2013

  Actual Average Record
Temperature  
Mean Temperature 86 °F -  
Max Temperature 96 °F 96 °F 99 °F (2015)
Min Temperature 77 °F 71 °F 68 °F (2014)
Cooling Degree Days 21    
Growing Degree Days 36 (Base 50)    
Moisture  
Dew Point 75 °F    
Average Humidity 71    
Maximum Humidity 91    
Minimum Humidity 51    
Precipitation  
Precipitation 0.00 in - - ()
Sea Level Pressure  
Sea Level Pressure 30.00 in    
Wind  
Wind Speed 7 mph (SE)    
Max Wind Speed 10 mph    
Max Gust Speed 17 mph    
Visibility 10 miles    
Events Thunderstorm    
Averages and records for this station are not official NWS values.
T = Trace of Precipitation, MM = Missing Value Source: NWS Daily Summary

Daily Weather History Graph

Daily Weather History Graph

Search for Another Location

Airport or City:

Trip Planner

Search our weather history database for the weather conditions in past years. The results will help you decide how hot, cold, wet, or windy it might be!

Date:

Astronomy

Jul. 29, 2013 Rise Set
Actual Time 6:31 AM CDT 8:25 PM CDT
Civil Twilight 6:03 AM CDT 8:52 PM CDT
Nautical Twilight 5:30 AM CDT 9:26 PM CDT
Astronomical Twilight 4:54 AM CDT 10:01 PM CDT
Moon 12:10 AM CDT (7/29) 1:50 PM CDT (7/29)
Length of Visible Light 14h 48m
Length of Day
13h 53m
Waning Gibbous, 50% of the Moon is Illuminated
Jul 29
Waning Gibbous
Jul 29
Last Quarter
Aug 6
New
Aug 14
First Quarter
Aug 20
Full

Hourly Weather History & Observations

Time (CDT) Temp. Heat Index Dew Point Humidity Pressure Visibility Wind Dir Wind Speed Gust Speed Precip Events Conditions
12:15 AM 81.1 °F 85.6 °F 72.1 °F 74% 29.98 in 10.0 mi SE 10.4 mph - N/A   Clear
12:35 AM 81.3 °F 85.8 °F 72.0 °F 73% 29.98 in 10.0 mi SE 10.4 mph 16.1 mph N/A   Scattered Clouds
12:55 AM 80.8 °F 84.9 °F 72.0 °F 74% 29.98 in 10.0 mi SE 8.1 mph - N/A   Scattered Clouds
1:15 AM 80.6 °F 84.9 °F 72.3 °F 76% 29.99 in 10.0 mi SE 9.2 mph - N/A   Mostly Cloudy
1:35 AM 80.1 °F 84.1 °F 72.5 °F 78% 29.99 in 10.0 mi SE 6.9 mph - N/A   Mostly Cloudy
1:55 AM 79.7 °F - 72.5 °F 79% 29.98 in 10.0 mi SE 8.1 mph - N/A   Mostly Cloudy
2:15 AM 78.8 °F - 72.7 °F 81% 29.98 in 10.0 mi ESE 5.8 mph - N/A   Mostly Cloudy
2:55 AM 77.9 °F - 72.9 °F 84% 29.98 in 10.0 mi ESE 6.9 mph - N/A   Mostly Cloudy
3:15 AM 77.9 °F - 73.0 °F 85% 29.98 in 10.0 mi ESE 4.6 mph - N/A   Overcast
3:35 AM 77.9 °F - 73.0 °F 85% 29.98 in 10.0 mi ESE 5.8 mph - N/A   Overcast
3:55 AM 78.1 °F - 73.4 °F 85% 29.98 in 10.0 mi ESE 5.8 mph - N/A   Overcast
4:15 AM 78.1 °F - 73.4 °F 85% 29.99 in 10.0 mi ESE 4.6 mph - N/A   Overcast
4:35 AM 77.9 °F - 73.4 °F 86% 29.99 in 10.0 mi ESE 6.9 mph - N/A   Scattered Clouds
4:55 AM 77.9 °F - 73.4 °F 86% 29.99 in 10.0 mi ESE 4.6 mph - N/A   Mostly Cloudy
5:15 AM 78.1 °F - 73.4 °F 85% 29.99 in 10.0 mi East 4.6 mph - N/A   Mostly Cloudy
5:35 AM 77.4 °F - 73.4 °F 88% 29.99 in 10.0 mi ESE 4.6 mph - N/A   Clear
5:55 AM 77.0 °F - 73.4 °F 89% 30.00 in 10.0 mi SE 4.6 mph - N/A Thunderstorm Scattered Clouds
6:15 AM 77.0 °F - 73.4 °F 89% 30.01 in 10.0 mi ESE 4.6 mph - N/A Thunderstorm Thunderstorm
6:35 AM 77.4 °F - 73.4 °F 88% 30.01 in 10.0 mi ESE 4.6 mph - N/A   Mostly Cloudy
6:55 AM 77.2 °F - 74.5 °F 91% 30.01 in 10.0 mi ESE 4.6 mph - N/A   Overcast
7:15 AM 77.5 °F - 74.3 °F 90% 30.02 in 10.0 mi ESE 5.8 mph - N/A   Overcast
7:35 AM 77.9 °F - 74.3 °F 89% 30.02 in 10.0 mi SE 5.8 mph - N/A   Mostly Cloudy
7:55 AM 78.1 °F - 74.5 °F 89% 30.03 in 10.0 mi ESE 4.6 mph - N/A   Mostly Cloudy
8:15 AM 78.3 °F - 74.7 °F 89% 30.03 in 10.0 mi ESE 5.8 mph - N/A   Overcast
8:35 AM 79.3 °F - 75.2 °F 87% 30.03 in 10.0 mi SE 5.8 mph - N/A   Overcast
8:55 AM 80.1 °F 85.2 °F 75.4 °F 86% 30.03 in 10.0 mi SE 8.1 mph - N/A   Overcast
9:15 AM 81.1 °F 87.8 °F 76.3 °F 85% 30.03 in 10.0 mi SE 4.6 mph - N/A   Overcast
9:35 AM 82.2 °F 90.1 °F 76.5 °F 83% 30.03 in 10.0 mi SE 6.9 mph - N/A   Overcast
9:55 AM 82.6 °F 91.1 °F 76.8 °F 83% 30.03 in 10.0 mi SE 5.8 mph - N/A   Overcast
10:15 AM 84.4 °F 95.0 °F 77.5 °F 80% 30.03 in 10.0 mi ESE 5.8 mph - N/A   Overcast
10:35 AM 84.6 °F 95.1 °F 77.5 °F 79% 30.03 in 10.0 mi SE 5.8 mph - N/A   Overcast
10:55 AM 85.1 °F 96.7 °F 77.9 °F 79% 30.04 in 10.0 mi SSE 4.6 mph - N/A   Overcast
11:15 AM 86.2 °F 98.3 °F 77.7 °F 76% 30.03 in 10.0 mi South 5.8 mph - N/A   Overcast
11:35 AM 88.7 °F 101.6 °F 77.2 °F 69% 30.03 in 10.0 mi SSW 6.9 mph - N/A   Mostly Cloudy
11:55 AM 90.7 °F 103.8 °F 76.8 °F 64% 30.03 in 10.0 mi South 8.1 mph - N/A   Scattered Clouds
12:15 PM 89.1 °F 100.8 °F 76.5 °F 66% 30.03 in 10.0 mi South 5.8 mph - N/A   Mostly Cloudy
12:35 PM 90.7 °F 102.6 °F 75.9 °F 62% 30.03 in 10.0 mi SSW 10.4 mph - N/A   Mostly Cloudy
12:55 PM 90.5 °F 102.7 °F 76.5 °F 63% 30.02 in 10.0 mi South 6.9 mph - N/A   Overcast
1:15 PM 90.1 °F 103.0 °F 76.8 °F 65% 30.02 in 10.0 mi South 3.5 mph - N/A   Overcast
1:35 PM 90.5 °F 103.4 °F 76.6 °F 64% 30.01 in 10.0 mi South 5.8 mph - N/A   Overcast
1:55 PM 91.2 °F 102.0 °F 75.0 °F 59% 30.01 in 10.0 mi SSE 9.2 mph - N/A   Overcast
2:15 PM 92.3 °F 103.4 °F 75.2 °F 57% 30.00 in 10.0 mi SSE 9.2 mph - N/A   Mostly Cloudy
2:35 PM 93.2 °F 103.7 °F 74.5 °F 54% 30.00 in 10.0 mi South 8.1 mph - N/A   Mostly Cloudy
2:55 PM 93.4 °F 104.8 °F 74.8 °F 55% 30.00 in 10.0 mi South 6.9 mph - N/A   Mostly Cloudy
3:15 PM 93.7 °F 105.7 °F 75.2 °F 55% 30.00 in 10.0 mi South 9.2 mph 17.3 mph N/A   Overcast
3:35 PM 95.9 °F 108.9 °F 75.6 °F 52% 30.00 in 10.0 mi South 9.2 mph - N/A   Mostly Cloudy
3:55 PM 94.5 °F 106.8 °F 75.7 °F 54% 30.00 in 10.0 mi SSW 6.9 mph - N/A   Overcast
4:15 PM 94.3 °F 104.9 °F 74.1 °F 52% 29.99 in 10.0 mi South 8.1 mph - N/A   Mostly Cloudy
4:35 PM 95.4 °F 106.8 °F 74.7 °F 51% 29.99 in 10.0 mi SSW 5.8 mph - N/A   Scattered Clouds
4:55 PM 94.5 °F 106.8 °F 75.6 °F 54% 29.98 in 10.0 mi SSW 6.9 mph - N/A   Scattered Clouds
5:15 PM 94.1 °F 105.9 °F 75.2 °F 54% 29.98 in 10.0 mi South 5.8 mph - N/A   Clear
5:35 PM 94.3 °F 107.1 °F 75.7 °F 55% 29.97 in 10.0 mi South 8.1 mph - N/A   Clear
5:55 PM 94.3 °F 106.3 °F 75.2 °F 54% 29.96 in 10.0 mi South 6.9 mph - N/A   Clear
6:15 PM 94.6 °F 108.0 °F 76.3 °F 55% 29.96 in 10.0 mi South 5.8 mph - N/A   Scattered Clouds
6:35 PM 94.5 °F 106.0 °F 75.2 °F 53% 29.95 in 10.0 mi South 8.1 mph - N/A   Clear
6:55 PM 93.7 °F 104.3 °F 74.5 °F 53% 29.95 in 10.0 mi South 10.4 mph - N/A   Clear
7:15 PM 93.0 °F 102.6 °F 73.6 °F 53% 29.95 in 10.0 mi SSE 6.9 mph - N/A   Clear
7:35 PM 92.1 °F 101.7 °F 73.9 °F 55% 29.96 in 10.0 mi SSE 5.8 mph - N/A   Clear
7:55 PM 90.7 °F 100.7 °F 74.7 °F 59% 29.97 in 10.0 mi SE 3.5 mph - N/A   Clear
8:15 PM 90.0 °F 99.6 °F 74.3 °F 60% 29.98 in 10.0 mi SE 3.5 mph - N/A   Clear
8:35 PM 88.7 °F 98.2 °F 74.5 °F 63% 29.98 in 10.0 mi SE 3.5 mph - N/A   Clear
8:55 PM 88.3 °F 97.4 °F 74.5 °F 63% 29.97 in 10.0 mi SE 5.8 mph - N/A   Clear
9:15 PM 88.7 °F 97.7 °F 74.3 °F 62% 29.96 in 10.0 mi SE 5.8 mph - N/A   Clear
9:35 PM 88.2 °F 96.9 °F 74.1 °F 63% 29.97 in 10.0 mi SE 5.8 mph - N/A   Clear
9:55 PM 87.8 °F 96.6 °F 74.5 °F 64% 29.98 in 10.0 mi SE 3.5 mph - N/A   Clear
10:15 PM 87.8 °F 97.1 °F 74.7 °F 65% 29.98 in 10.0 mi SE 5.8 mph - N/A   Clear
10:35 PM 87.4 °F 97.2 °F 75.2 °F 67% 30.00 in 10.0 mi ESE 3.5 mph - N/A   Clear
10:55 PM 85.8 °F 95.9 °F 76.1 °F 73% 29.99 in 10.0 mi SE 4.6 mph - N/A   Clear
11:15 PM 86.9 °F 95.9 °F 74.7 °F 67% 29.98 in 10.0 mi SE 5.8 mph - N/A   Clear
11:35 PM 87.1 °F 95.9 °F 74.3 °F 66% 29.99 in 10.0 mi SSE 5.8 mph - N/A   Clear
11:55 PM 86.9 °F 95.0 °F 73.9 °F 65% 29.99 in 10.0 mi SSE 4.6 mph - N/A   Clear